Flag for Honduras Weather past 2 weeks in Choloma, Honduras

Now
79 °F

Broken clouds.


Feels Like: 82 °F
Forecast: 69 / 78 °F
Wind: No wind

Location: La Mesa San Pedro Sula

Current Time: Dec 20, 2014 at 10:03:36 AM

Latest Report: Dec 20, 2014 at 9:00 AM


Visibility: N/A

Pressure: 29.98 "Hg

Humidity: 79%

Dew point: 72 °F

Location of CholomaLocation

Historic Weather in Choloma — Graph

°F

Choloma temperature yesterday

Maximum temperature yesterday: 86 °F (at 1:00 PM)
Minimum temperature yesterday: 68 °F (at 12:00 AM)
Average temperature yesterday: 75 °F

Past Weeks' High & Low Weather Summary

 TemperatureHumidityPressure
High86 °F (Dec 19, 1:00 PM)100% (Dec 5, 7:00 PM)30.18 "Hg (Dec 5, 7:00 PM)
Low66 °F (Dec 10, 8:00 PM)55% (Dec 17, 12:00 PM)29.86 "Hg (Dec 19, 3:00 PM)
Average73 °F93%30.05 "Hg
* Reported Dec 5 9:00 AM — Dec 20 9:00 AM, Choloma, Weather by CustomWeather, © 2014

Note: Actual official high and low records may vary slightly from our data, if they occured in-between our weather recording intervals... More about our weather records

Advertising

Choloma weather history for previous 24 hours

 ConditionsComfort  
Time TempWeatherWind HumidityBarometerVisibility
9:00 AM
Dec 20
79 °FBroken clouds.No wind79%29.98 "HgN/A
7:00 AM72 °FBroken clouds.No wind100%29.98 "HgN/A
6:00 AM70 °FPassing clouds.No wind100%29.98 "HgN/A
5:00 AM70 °FPassing clouds.No wind100%29.95 "HgN/A
4:00 AM70 °FPassing clouds.2 mph100%29.92 "HgN/A
3:00 AM70 °FPassing clouds.5 mph100%29.92 "HgN/A
2:00 AM72 °FPassing clouds.No wind94%29.92 "HgN/A
1:00 AM72 °FPassing clouds.No wind94%29.95 "HgN/A
12:00 AM72 °FPassing clouds.3 mph100%29.95 "HgN/A
11:00 PM
Dec 19
72 °FPassing clouds.3 mph100%29.95 "HgN/A
10:00 PM72 °FPassing clouds.3 mph94%29.95 "HgN/A
9:00 PM73 °FPassing clouds.No wind94%29.95 "HgN/A
8:00 PM75 °FPassing clouds.5 mph83%29.95 "HgN/A
7:00 PM77 °FPassing clouds.6 mph74%29.92 "HgN/A
6:00 PM79 °FPassing clouds.7 mph84%29.86 "HgN/A
5:00 PM81 °FPartly sunny.6 mph84%29.86 "HgN/A
4:00 PM84 °FPartly sunny.8 mph66%29.86 "HgN/A
3:00 PM86 °FScattered clouds.5 mph59%29.86 "HgN/A
1:00 PM86 °FPassing clouds.2 mph62%29.89 "HgN/A
12:00 PM84 °FScattered clouds.5 mph66%29.95 "HgN/A
11:00 AM82 °FPassing clouds.5 mph74%29.98 "HgN/A
10:00 AM79 °FScattered clouds.5 mph79%30.01 "HgN/A
Weather by CustomWeather, © 2014

See weather overviewHow to use our weather pages